This demonstration page uses our WeatherBlox Daily Observations layout. Learn more.

Left ArrowRight Arrow

34.74481, -87.66753

Hourly Observations for July 26, 2022

Temp ( °F °C ) Dew Point ( °F °C ) Humidity (%) Winds ( mph kmh ) Pressure ( in mb ) Visibility ( mi km ) Precip ( " mm )
12:53 am 00:53 Clear 79 26.1 74 23.3 85 85 S 6 9 30.02 1017 10 16 0.00 0.00
1:53 am 01:53 Clear 78 25.6 73 22.8 85 85 S 5 7 30.00 1016 10 16 0.00 0.00
2:53 am 02:53 Clear 76 24.4 73 22.8 91 91 SE 5 7 30.00 1016 10 16 0.00 0.00
3:53 am 03:53 Clear 77 25 73 22.8 88 88 SSW 3 6 30.02 1017 10 16 0.00 0.00
4:53 am 04:53 Clear 77 25 73 22.8 88 88 SSW 7 11 30.03 1017 10 16 0.00 0.00
5:53 am 05:53 Partly Cloudy 77 25 74 23.3 90 90 S 6 9 30.05 1018 10 16 0.00 0.00
6:05 am 06:05 Mostly Cloudy 77 25 74 23.3 90 90 S 6 9 30.05 1018 10 16 0.00 0.00
6:38 am 06:38 Mostly Sunny 77 25 74 23.3 90 90 S 5 7 30.05 1018 10 16 0.00 0.00
6:53 am 06:53 Sunny 77 25 74 23.3 90 90 SSW 3 6 30.05 1018 10 16 0.00 0.00
7:53 am 07:53 Partly Cloudy 80 26.7 75 23.9 85 85 SW 8 13 30.07 1018 10 16 0.00 0.00
8:53 am 08:53 Mostly Sunny 83 28.3 74 23.3 74 74 WSW 9 15 30.08 1019 10 16 0.00 0.00
9:23 am 09:23 Mostly Cloudy 85 29.4 74 23.3 70 70 VRB 7 11 30.07 1018 10 16 0.00 0.00
9:30 am 09:30 Partly Cloudy 85 29.4 74 23.3 70 70 WSW 7 11 30.07 1018 10 16 0.00 0.00
9:53 am 09:53 Mostly Cloudy 85 29.4 74 23.3 70 70 SSW 10 17 30.09 1019 10 16 0.00 0.00
10:33 am 10:33 Partly Cloudy 86 30 74 23.3 67 67 VRB 6 9 30.08 1019 10 16 0.00 0.00
10:46 am 10:46 Mostly Cloudy 86 30 74 23.3 67 67 WSW 9 15 30.08 1019 10 16 0.00 0.00
10:53 am 10:53 Partly Cloudy 88 31.1 74 23.3 63 63 SW 9 15 30.09 1019 10 16 0.00 0.00
11:53 am 11:53 Partly Cloudy 88 31.1 74 23.3 63 63 SSW 9 15 30.08 1019 10 16 0.00 0.00
12:53 pm 12:53 Mostly Sunny 92 33.3 73 22.8 54 54 SW 9 15 30.06 1018 10 16 0.00 0.00
1:53 pm 13:53 Mostly Sunny 93 33.9 73 22.8 52 52 WSW 12 19 30.04 1017 10 16 0.00 0.00
2:53 pm 14:53 Mostly Sunny 92 33.3 73 22.8 54 54 SSW 12 19 30.02 1017 10 16 0.00 0.00
3:53 pm 15:53 Mostly Sunny 93 33.9 72 22.2 50 50 SSW 10 17 30.01 1016 10 16 0.00 0.00
4:53 pm 16:53 Mostly Sunny 93 33.9 73 22.8 52 52 SSW 12 19 30.01 1016 10 16 0.00 0.00
5:53 pm 17:53 Sunny 92 33.3 72 22.2 52 52 S 12 19 30.00 1016 10 16 0.00 0.00
6:53 pm 18:53 Sunny 90 32.2 72 22.2 56 56 SSW 9 15 30.01 1016 10 16 0.00 0.00
7:53 pm 19:53 Sunny 87 30.6 73 22.8 63 63 SSW 6 9 29.99 1016 10 16 0.00 0.00
8:53 pm 20:53 Clear 85 29.4 74 23.3 70 70 SSW 7 11 30.00 1016 10 16 0.00 0.00
9:53 pm 21:53 Clear 84 28.9 74 23.3 72 72 S 3 6 30.03 1017 10 16 0.00 0.00
10:53 pm 22:53 Clear 82 27.8 74 23.3 77 77 S 3 6 30.03 1017 10 16 0.00 0.00
11:53 pm 23:53 Clear 81 27.2 73 22.8 77 77 SSW 5 7 30.03 1017 10 16 0.00 0.00

Powered by AerisWeather